Wind_Speed
18 21 23 25 27 28 30 32 34 34 35 37 39 41 42 43 45 47 49 52 55 56 57 58 59 60 60 61 62 63 62 61 59 58 58 56 52 48 45 45 45 46 46 45 44 43 43 44 44 45 45 45 44 43 43 43 43 43 43 43 44 44 45 47 48 49 50 50 49 49 49 49 46 43 40 39 39 39 37 36 36 37 36 34 32
17 19 21 22 25 26 28 31 33 35 35 36 38 40 42 43 44 46 48 51 53 55 57 59 60 60 59 60 61 63 63 61 59 57 57 59 59 57 54 52 50 48 48 47 45 43 42 43 44 45 44 44 43 43 42 42 43 43 43 43 44 46 48 51 52 53 53 52 52 51 51 51 49 46 44 43 42 42 40 38 38 39 39 37 35
16 18 20 21 23 24 26 29 32 35 36 37 38 39 41 43 44 46 47 49 52 53 56 58 61 62 62 61 60 61 62 62 60 56 54 56 58 60 60 59 57 55 52 50 49 47 45 45 45 45 45 44 44 43 42 42 43 43 44 46 49 52 54 55 55 55 55 55 55 54 53 52 52 49 47 46 46 45 43 40 39 40 41 40 38
13 16 19 21 22 23 24 26 29 32 35 37 38 39 41 43 44 45 46 48 51 53 55 57 59 61 64 66 65 64 63 62 62 59 56 55 55 55 57 59 59 58 58 56 54 53 52 51 50 50 50 49 48 48 47 48 48 50 51 54 56 57 57 56 56 56 55 55 56 56 55 54 56 54 49 49 50 48 46 43 41 42 43 42 41
11 14 17 20 22 23 24 25 26 29 32 34 37 38 40 41 43 44 46 47 49 51 53 57 59 60 62 65 69 71 70 68 66 64 62 61 59 56 54 57 57 57 59 60 60 59 59 59 58 58 58 58 58 58 57 57 57 58 58 59 59 58 57 56 56 57 56 56 56 57 57 56 56 55 52 52 54 52 49 47 45 43 44 44 43
9 11 14 17 20 22 24 24 25 27 29 32 34 36 38 40 41 43 45 46 47 48 50 53 56 58 60 62 66 71 73 74 73 70 68 66 64 61 57 56 56 54 56 59 62 63 64 64 65 65 65 65 65 65 64 64 64 64 63 62 61 59 58 58 58 58 58 57 56 57 57 56 55 54 54 55 55 54 52 50 48 46 46 46 45
8 9 11 14 16 19 21 23 25 26 28 29 31 33 36 37 39 40 42 43 45 46 48 50 52 55 56 58 61 65 69 73 74 73 72 70 68 65 61 57 55 53 53 55 55 57 60 60 62 65 65 65 65 65 66 66 66 65 65 64 61 59 57 58 58 58 59 58 58 57 57 57 55 53 54 56 56 55 54 52 51 49 48 48 47
7 8 9 11 13 15 18 20 22 24 26 26 28 29 30 32 34 36 38 40 42 44 47 49 51 52 54 55 57 60 63 66 69 71 71 70 69 68 66 63 59 55 53 54 52 50 52 51 53 59 63 63 63 63 64 64 66 66 65 65 61 57 56 56 56 57 58 59 59 58 58 58 57 56 57 57 57 56 55 54 53 52 51 50 50
7 8 9 10 12 14 16 17 18 20 22 23 24 24 25 26 28 30 32 35 38 40 43 45 47 49 51 53 54 56 59 61 63 65 67 67 68 67 68 67 65 61 57 57 57 54 53 51 51 53 57 60 61 62 64 64 66 68 67 67 64 57 55 54 53 53 54 56 58 59 59 60 59 59 59 59 59 57 56 55 55 55 54 53 52
8 9 9 10 11 12 14 16 17 17 18 19 20 21 22 22 23 25 27 30 32 34 37 39 42 44 46 48 50 52 54 56 58 59 61 62 63 64 65 65 65 65 63 61 61 61 60 58 56 56 57 59 62 65 68 67 68 69 68 69 67 60 55 53 53 52 52 53 56 59 60 61 61 60 61 61 60 59 59 58 57 57 57 56 54
11 11 11 11 11 12 12 14 16 16 16 17 17 18 19 20 21 22 23 25 27 29 30 32 35 37 39 41 44 46 48 51 53 54 56 57 58 59 60 62 63 63 64 63 64 64 65 64 64 64 64 66 67 69 70 69 69 69 67 66 66 62 57 54 53 53 53 53 55 59 61 63 63 63 62 62 62 61 61 60 60 59 59 59 57
13 13 13 13 13 13 13 13 14 15 16 16 16 17 18 18 19 20 21 23 24 25 26 26 28 29 31 33 36 38 41 44 47 50 52 54 55 57 58 59 61 62 62 63 63 64 64 65 65 66 66 67 67 67 67 67 66 66 66 65 63 61 58 55 55 55 54 54 54 57 61 64 65 65 66 65 64 64 63 62 61 60 60 61 60
15 15 15 15 16 15 15 15 14 15 15 16 16 16 16 16 17 18 19 20 22 22 23 24 25 26 27 28 30 31 33 36 39 41 44 46 48 49 51 52 53 54 56 57 58 59 60 61 62 62 62 62 63 63 63 63 63 63 63 62 61 59 56 55 55 55 55 54 54 55 58 61 63 64 65 67 67 66 66 65 64 63 62 61 62
15 16 17 17 17 18 18 17 17 16 16 16 17 16 16 16 16 17 17 18 19 20 20 21 22 23 24 26 27 28 29 31 32 34 36 37 38 39 40 41 43 44 45 47 48 50 52 53 55 55 56 57 57 58 58 58 58 58 57 57 56 55 54 54 54 53 53 54 54 54 55 57 58 59 60 62 65 67 69 68 67 66 65 63 63
14 16 17 18 18 19 19 19 19 18 18 18 18 18 18 18 18 18 18 18 18 18 18 18 19 20 21 22 23 24 25 26 28 29 31 32 32 33 34 35 36 37 38 39 41 42 44 45 46 48 49 50 50 51 52 52 52 52 51 51 51 51 51 51 52 52 52 53 53 54 54 55 56 57 57 57 59 62 66 69 70 69 68 67 65
15 15 16 17 18 19 19 20 20 20 20 19 19 19 19 20 20 20 20 20 20 19 19 19 18 18 18 19 19 19 20 21 22 23 24 25 26 27 28 29 30 31 32 34 35 36 38 39 40 42 43 44 45 45 46 47 47 47 48 48 48 47 47 48 49 50 51 51 52 53 54 54 55 56 56 56 56 57 60 63 67 70 71 70 69
16 16 16 17 18 18 19 19 20 20 20 21 21 21 21 21 21 21 21 21 21 21 20 20 20 19 19 19 19 19 19 19 19 19 20 21 21 22 23 24 25 26 27 28 29 31 32 33 35 36 37 38 39 40 41 42 42 43 44 44 45 45 45 46 46 47 48 49 50 51 52 52 53 54 55 55 56 56 57 59 62 66 70 71 72
17 18 18 18 19 19 19 19 20 20 20 21 21 22 22 22 22 22 22 22 22 22 22 21 21 20 20 20 19 19 19 19 19 19 19 19 20 20 21 21 22 23 24 25 26 27 28 29 30 31 33 33 34 35 36 37 38 39 40 41 41 42 42 43 44 45 46 46 47 48 49 49 50 51 51 53 54 54 55 57 59 62 65 68 70
18 18 19 20 20 20 20 20 20 20 20 21 21 22 22 23 23 23 23 23 23 22 22 21 21 20 20 19 19 18 18 18 18 18 18 18 18 19 20 20 21 22 23 24 25 26 27 28 28 29 30 31 32 33 35 35 36 37 38 39 39 40 40 41 41 42 43 43 44 45 45 46 46 47 48 49 50 51 52 54 56 58 61 64 67
18 18 20 21 21 22 21 21 21 21 21 21 21 21 21 22 22 22 22 22 21 20 20 19 18 18 18 18 18 18 17 17 17 17 17 18 18 19 19 20 21 22 23 23 24 25 26 27 28 29 30 31 32 33 34 35 36 37 38 39 39 40 40 40 40 41 41 41 42 42 42 42 43 44 45 46 46 47 49 50 52 55 58 60 63
19 19 20 21 22 23 23 23 22 22 21 21 21 20 21 20 20 20 19 19 18 17 17 17 16 17 17 17 17 17 17 17 17 17 18 18 19 20 20 21 21 22 23 24 25 26 27 28 29 29 31 31 32 33 34 35 36 37 38 39 40 40 41 41 41 41 41 41 41 40 41 41 40 41 42 42 43 44 45 47 49 51 54 57 60
20 20 20 21 22 23 24 24 24 24 23 22 21 20 20 20 19 19 18 18 17 17 17 17 17 17 18 18 18 18 18 18 18 18 18 19 19 20 21 22 22 23 24 24 25 26 27 28 29 30 32 33 33 34 35 36 37 38 39 39 41 41 42 42 42 42 42 41 41 40 41 40 39 40 41 40 40 42 43 45 47 48 50 53 56
22 21 21 21 22 23 25 25 25 26 25 24 23 22 21 21 20 20 19 19 18 19 19 19 19 19 20 20 20 20 20 20 19 20 20 20 20 21 21 22 23 23 24 24 25 25 25 26 28 29 31 32 33 34 35 36 37 38 39 40 41 42 43 43 43 43 43 43 42 41 42 41 39 40 40 39 41 42 43 44 45 46 47 49 52
24 23 23 23 23 24 25 26 27 28 28 27 26 24 24 23 23 22 21 21 20 21 21 21 21 21 21 22 22 22 22 22 22 22 23 23 23 23 23 24 24 24 24 24 24 24 25 25 25 26 27 29 30 32 34 35 37 38 39 41 41 43 43 44 44 44 43 44 43 42 43 41 40 39 39 41 42 42 42 42 43 45 46 47 49
27 26 25 25 25 25 25 26 28 29 30 29 28 27 26 26 25 24 23 23 23 23 23 23 23 24 23 23 23 24 24 24 25 25 25 26 26 27 27 26 26 26 26 26 26 25 26 26 26 26 26 26 27 28 30 32 35 36 38 39 40 42 42 43 44 43 44 44 43 43 43 43 42 41 41 43 44 44 43 42 43 44 45 44 47
28 27 27 28 27 26 26 27 28 29 31 30 29 29 28 28 27 27 26 25 25 25 25 26 26 26 26 25 25 26 26 26 27 28 28 29 29 30 30 30 30 29 29 28 28 28 28 28 28 28 28 27 27 27 28 29 31 33 35 37 39 41 41 43 43 43 44 44 44 44 45 45 45 45 44 45 46 46 45 44 44 44 43 44 46
30 28 29 30 29 28 28 29 28 29 31 32 31 30 30 30 29 29 28 28 27 27 27 28 28 28 28 27 27 28 28 28 29 30 30 31 32 32 32 33 33 32 31 31 30 30 30 30 30 30 30 30 29 29 29 29 30 31 33 35 37 40 41 43 44 44 45 45 46 47 47 46 46 47 47 46 46 46 47 46 45 44 45 45 46
31 29 30 31 30 29 30 30 30 30 32 32 32 32 32 32 31 30 30 30 30 29 30 30 30 30 30 29 29 29 29 29 29 30 31 32 33 33 34 35 35 34 34 33 33 33 33 33 33 32 32 32 32 32 32 32 32 32 33 34 36 38 40 43 44 46 47 47 48 48 49 48 48 50 49 48 47 46 47 47 47 47 47 48 49
31 30 31 31 31 31 31 31 32 32 33 33 33 33 34 34 33 32 32 32 31 31 32 33 32 32 32 31 31 30 30 30 30 30 31 32 33 34 34 36 36 36 35 35 35 35 35 35 34 34 34 34 34 34 34 34 35 35 35 35 36 36 38 41 43 45 47 47 48 49 50 50 49 51 50 50 49 50 51 50 50 51 51 52 53
31 31 32 31 32 32 32 32 33 34 35 35 35 35 35 35 35 34 34 34 33 34 34 34 34 34 34 33 32 32 32 32 32 32 32 33 33 34 35 36 37 37 37 37 37 36 37 37 36 36 36 36 37 37 37 37 37 37 37 37 37 38 38 40 42 44 45 47 48 49 50 51 50 51 52 50 49 52 55 54 54 54 55 57 57
31 32 32 32 33 33 32 32 34 35 36 36 36 36 36 36 36 36 36 36 36 36 37 36 36 36 36 36 35 35 34 34 34 35 35 35 35 36 36 37 37 38 38 38 38 38 38 39 38 38 38 39 39 39 39 39 39 40 40 40 40 39 40 41 42 43 45 46 48 49 50 50 51 51 53 53 52 53 55 57 58 57 58 60 61
33 33 33 33 34 34 34 34 35 37 38 37 38 38 37 37 37 37 37 38 38 38 38 38 37 38 38 37 37 37 37 37 37 37 37 37 37 37 38 38 39 39 39 40 40 40 41 41 40 40 40 41 41 42 42 42 42 43 43 43 42 42 41 42 42 44 45 46 48 50 50 50 51 52 54 54 55 56 56 58 60 60 61 62 63
35 35 36 35 35 35 36 37 37 39 39 39 39 39 39 38 38 38 39 39 39 39 39 38 38 39 39 38 38 38 39 40 40 39 39 39 39 39 39 40 41 41 41 41 42 42 42 42 42 42 43 43 43 44 44 44 45 45 46 46 45 44 43 43 44 45 46 47 48 50 50 51 51 53 55 57 58 60 60 60 61 63 63 63 64
37 37 38 38 36 37 38 39 40 41 42 42 41 41 41 40 40 40 41 41 41 41 40 39 39 40 40 40 40 40 41 42 42 42 42 42 41 41 41 42 42 43 43 43 43 44 44 44 45 45 45 45 46 46 47 47 47 48 49 49 48 48 47 47 48 48 49 50 51 52 53 54 55 56 58 60 61 62 63 63 64 65 65 65 66
40 40 41 41 40 39 40 41 42 44 45 45 45 44 44 43 42 42 42 43 42 42 41 41 41 42 42 42 42 42 42 43 44 44 45 44 44 44 44 44 45 45 45 45 45 46 46 46 47 47 47 48 48 49 49 49 50 50 51 51 51 51 51 51 52 53 53 54 55 56 57 58 59 60 61 62 63 65 65 66 67 67 67 68 68
41 42 43 44 43 42 43 44 45 46 47 48 47 47 47 46 45 45 44 45 44 44 44 43 44 45 45 44 44 44 45 45 45 46 46 47 47 47 47 47 47 47 47 47 48 48 48 49 49 49 49 50 50 50 51 51 52 53 53 54 54 54 55 55 56 56 57 58 59 60 61 62 62 62 63 64 65 66 67 68 69 70 70 71 71
43 43 44 44 44 44 45 46 47 49 50 51 51 50 50 49 48 48 47 48 48 47 46 47 47 47 47 47 47 47 47 47 47 48 48 49 49 49 50 50 50 50 49 50 50 51 51 51 51 51 51 51 52 52 53 54 54 55 56 56 57 57 58 58 59 60 61 61 62 63 64 65 65 65 66 67 68 69 70 71 72 73 74 75 75
44 45 46 45 45 46 46 48 49 50 52 54 54 55 55 54 53 52 51 52 52 51 50 50 49 49 49 49 49 50 50 51 51 51 51 51 51 51 52 52 53 53 52 52 52 53 54 54 54 54 54 54 54 55 55 55 56 57 58 58 59 60 60 61 62 63 64 65 65 66 67 68 68 69 70 71 72 74 75 76 77 78 79 80 80
44 45 47 47 47 48 49 50 50 51 52 54 56 57 58 58 57 57 56 56 56 55 54 53 52 51 51 52 52 52 53 54 54 54 55 55 54 54 54 54 54 55 55 55 55 56 56 57 57 57 57 57 57 57 57 58 59 60 61 61 61 62 62 63 65 66 67 68 69 70 71 72 72 73 74 76 77 79 80 81 83 84 86 86 85
46 47 48 49 50 50 51 52 53 52 53 55 56 57 58 59 59 59 59 59 59 59 58 56 55 55 55 55 55 55 56 56 57 57 58 58 57 57 57 57 57 57 57 57 57 58 58 59 59 59 60 60 60 60 60 61 61 62 63 63 63 64 65 66 68 69 70 71 72 74 74 75 76 77 79 80 82 84 85 87 88 89 89 89 88
47 48 49 51 51 52 53 54 54 54 55 56 57 57 58 58 59 59 59 60 60 60 60 59 58 58 58 57 57 57 58 58 58 59 59 59 60 60 61 61 61 60 59 59 59 60 60 61 61 62 62 62 62 62 63 64 64 65 66 66 66 66 68 69 71 72 73 74 76 77 78 79 80 81 83 84 86 88 90 91 91 91 91 90 90
42 45 48 50 50 51 52 53 54 54 55 56 56 57 57 58 58 59 59 59 59 60 60 59 60 59 58 58 58 58 58 58 59 60 60 61 62 63 64 64 64 63 62 62 62 62 63 63 64 64 65 65 65 65 66 67 67 68 69 70 69 69 70 72 74 74 76 78 79 80 82 83 84 85 86 88 90 91 93 93 92 91 91 91 92
38 41 44 46 48 49 51 52 53 53 54 54 54 55 55 56 57 57 57 58 58 58 58 58 58 58 57 57 58 58 58 59 60 60 62 63 64 65 66 66 65 64 64 64 64 64 65 66 67 68 68 69 69 69 69 70 70 71 72 73 74 73 73 74 76 78 79 81 82 84 85 86 87 89 90 92 93 93 93 93 93 93 93 94 95
36 38 41 43 46 47 48 50 50 51 51 52 52 52 53 54 54 54 54 55 56 56 56 56 56 57 57 57 58 58 59 60 61 62 63 65 66 67 67 66 65 65 65 66 66 67 68 69 70 71 72 72 72 72 72 73 73 74 74 75 77 78 77 77 79 81 83 85 86 87 89 90 91 92 94 95 95 95 94 94 95 96 97 97 97
37 37 39 41 43 44 45 46 47 48 48 49 49 50 51 51 52 52 53 53 54 54 55 56 57 58 59 59 60 61 62 62 63 64 64 65 66 66 66 66 66 66 67 67 68 69 70 71 72 73 74 74 75 75 75 75 76 77 78 78 80 81 82 83 84 85 87 89 90 91 91 92 93 94 95 96 96 96 97 97 98 99 99 100 100
41 40 40 41 42 43 43 44 46 47 47 48 49 50 50 51 51 52 52 53 54 56 57 58 59 60 61 61 62 63 63 64 64 64 65 66 66 67 67 67 67 68 69 69 70 70 71 72 73 74 76 77 77 78 78 78 79 79 81 82 83 85 86 87 88 89 90 91 92 92 93 93 94 95 96 96 97 98 99 99 100 101 102 102 102
44 44 43 43 44 45 46 46 47 48 48 48 49 50 51 51 52 53 54 56 57 58 59 59 60 60 60 60 61 62 63 64 65 65 66 67 68 68 69 69 70 70 71 71 72 72 73 74 75 76 78 79 80 81 81 82 82 83 84 85 86 87 88 89 90 91 92 92 93 94 94 94 94 96 97 97 98 99 100 101 102 103 104 104 104
47 47 46 46 47 48 49 49 50 51 51 51 51 52 53 53 54 55 56 58 59 59 59 59 60 60 60 60 61 62 63 64 66 67 68 68 69 69 70 70 71 72 73 73 74 75 75 76 77 78 79 80 82 83 84 85 86 86 87 88 88 89 90 90 91 91 92 92 94 96 96 96 96 97 98 99 100 100 101 102 104 105 106 106 106
51 51 51 51 50 51 52 53 53 54 54 55 55 56 56 56 56 56 57 58 59 60 60 61 62 63 63 64 64 64 64 65 66 67 68 68 69 71 72 73 73 74 75 76 76 77 77 78 79 80 81 82 83 85 86 87 88 89 89 90 90 91 91 92 92 93 93 93 94 95 97 98 99 100 101 102 102 102 103 104 105 106 107 108 108
55 56 56 56 56 55 56 56 57 56 57 58 58 58 58 58 58 58 59 60 61 62 63 64 64 65 66 66 67 66 66 66 66 67 68 69 71 73 75 76 76 77 78 78 78 79 80 81 82 83 84 85 86 88 89 90 91 92 92 93 93 93 94 94 95 95 95 95 94 94 96 97 99 101 103 104 103 103 104 105 106 107 107 108 108
57 58 58 59 59 60 60 60 60 60 60 60 60 61 61 61 62 62 62 62 62 63 65 65 65 66 67 68 69 69 69 69 69 69 70 71 72 74 76 76 77 78 78 79 79 80 82 83 85 86 87 89 90 91 93 94 94 95 96 96 97 97 97 97 97 97 97 97 97 96 97 97 97 99 101 103 104 104 105 105 105 105 105 106 106
Wind_Direction
213 218 221 222 220 217 215 215 213 212 212 212 213 214 216 216 216 217 217 218 219 221 222 223 224 226 229 232 233 235 236 234 233 233 231 231 231 232 234 236 237 239 239 240 240 240 240 239 238 237 238 239 241 242 242 242 243 244 246 248 250 252 255 258 259 258 257 256 255 254 252 250 251 252 252 253 253 254 255 255 254 255 256 257 256
208 212 217 220 220 219 216 215 213 212 211 212 213 213 215 216 217 218 218 220 220 221 222 223 224 224 224 228 233 235 236 236 236 236 237 237 238 237 237 239 240 240 239 239 237 237 236 236 236 237 238 239 241 243 243 244 245 247 249 252 255 259 262 264 263 260 258 257 256 255 253 251 250 251 253 254 254 254 254 254 253 253 255 256 256
204 206 211 215 218 219 218 216 214 213 211 211 212 213 213 214 215 217 218 220 222 223 224 224 225 227 225 225 228 232 235 238 238 237 238 240 242 244 244 243 243 243 241 239 237 235 234 234 236 237 238 239 241 242 244 246 249 252 255 259 263 266 267 267 265 262 259 257 256 255 253 251 249 249 253 255 254 254 254 254 252 251 253 256 256
203 202 205 210 213 216 217 216 215 215 214 213 213 213 214 214 214 215 217 219 222 224 225 225 226 228 228 226 226 228 232 236 238 238 237 237 241 244 248 248 246 246 245 243 241 239 237 236 238 240 241 242 244 245 247 250 253 256 260 263 266 268 269 267 264 261 259 258 256 255 254 252 249 248 251 254 252 252 254 254 253 251 251 254 255
207 201 200 204 208 210 213 214 215 216 217 217 217 217 217 217 216 216 217 219 221 223 224 225 226 228 229 229 228 228 230 232 235 236 236 237 239 241 245 249 250 250 251 250 247 245 244 242 242 244 245 246 248 250 251 253 255 257 260 263 266 269 269 266 263 261 259 258 257 256 254 252 250 247 248 251 251 251 253 254 254 251 250 251 253
211 205 201 199 202 205 207 210 212 215 217 219 221 222 222 221 220 219 219 220 221 222 224 225 226 228 229 230 229 229 230 231 233 235 236 238 240 241 242 247 250 250 252 254 254 253 252 252 251 250 250 250 250 252 253 254 255 257 259 262 266 268 268 265 263 261 260 259 257 257 255 253 252 247 245 248 249 250 251 253 254 253 250 250 252
218 209 204 201 201 203 205 207 209 212 214 217 220 222 223 222 222 222 222 222 222 223 224 226 227 228 230 231 231 231 231 232 233 235 237 239 241 243 243 244 247 249 248 250 254 256 258 258 258 259 257 255 254 254 255 256 256 257 260 263 265 267 267 263 262 260 259 258 257 256 254 252 251 248 246 247 248 249 250 251 253 254 252 250 251
220 214 207 203 201 202 205 207 208 209 212 214 216 218 220 221 222 224 224 224 224 225 226 227 228 229 231 232 232 232 233 233 234 236 237 240 242 244 245 245 246 247 244 242 244 248 253 253 253 260 264 263 261 261 261 262 263 263 265 267 266 267 266 261 259 259 258 258 257 255 253 252 250 247 247 247 247 249 249 249 251 253 253 251 251
210 212 210 205 201 200 203 207 208 208 209 210 213 216 218 221 223 225 226 227 227 228 228 229 230 231 232 232 233 233 234 235 236 237 238 240 241 244 246 247 247 248 246 242 240 242 245 245 244 251 258 262 262 262 264 265 266 268 270 271 270 269 266 260 258 257 256 256 256 255 254 253 251 248 247 247 247 247 248 249 251 253 254 253 252
201 203 205 207 204 200 199 201 204 205 206 206 208 211 214 218 223 226 227 228 229 230 230 231 232 233 234 234 235 235 236 236 238 239 240 241 242 244 245 247 248 249 250 247 245 244 244 244 243 244 249 254 257 260 262 263 264 267 269 271 272 271 266 260 258 257 257 256 256 255 254 253 252 250 249 248 248 248 248 249 251 252 254 255 255
194 197 199 202 205 204 201 198 198 200 202 203 204 205 208 211 216 222 226 228 229 230 231 231 232 234 236 237 237 238 239 239 240 241 242 244 245 246 246 247 248 249 250 251 250 250 249 249 249 250 251 254 256 259 261 263 263 264 265 266 268 270 267 260 257 257 258 258 257 255 254 254 253 252 251 250 249 248 249 250 251 252 253 254 255
193 195 197 197 200 202 202 200 197 197 199 201 203 204 204 205 208 213 218 223 226 228 230 231 232 234 236 237 239 240 240 241 242 243 244 245 246 247 248 248 249 249 250 251 251 252 252 253 253 254 255 256 258 259 260 262 262 263 263 264 265 266 265 261 259 258 258 258 257 255 253 254 254 253 252 252 250 248 249 251 252 252 253 254 255
197 196 196 197 198 199 200 200 199 198 198 199 200 202 204 205 207 210 212 216 219 222 225 227 229 232 234 235 237 238 239 240 241 242 243 244 245 246 247 247 248 249 250 250 251 251 252 252 253 254 255 256 257 258 259 260 261 262 263 264 264 264 263 261 260 260 260 260 259 256 253 253 254 254 253 252 251 250 249 250 251 252 253 255 256
201 199 198 198 198 198 199 199 199 200 199 199 199 200 202 204 206 209 212 214 216 218 220 222 224 226 228 230 232 234 236 237 238 239 241 242 243 244 245 246 247 247 248 249 250 251 251 252 253 254 254 255 256 257 258 259 260 261 262 262 262 262 261 260 259 259 260 260 260 258 256 254 253 253 253 253 252 252 252 252 252 252 253 254 256
206 205 202 200 199 199 199 199 200 201 201 202 202 202 203 204 206 208 210 213 216 218 220 221 222 224 225 227 228 231 233 234 236 237 239 240 241 243 244 245 246 247 248 249 249 250 251 251 252 252 253 253 254 255 256 256 257 257 258 258 259 259 258 258 258 257 257 257 257 257 257 256 255 254 254 253 253 253 253 253 253 253 253 254 255
210 210 209 205 202 201 200 200 200 202 203 204 205 206 206 207 207 208 210 213 215 217 219 221 223 226 227 229 232 233 235 237 238 240 241 242 243 244 245 245 246 247 248 248 249 250 250 251 251 251 252 252 252 253 254 254 255 255 255 255 255 255 255 255 256 256 256 256 256 256 256 256 256 256 256 255 254 254 254 254 253 253 253 253 254
211 211 211 209 207 204 202 201 201 201 202 203 205 207 208 209 209 210 211 213 215 216 218 220 222 225 228 230 233 236 239 242 244 246 248 249 250 250 250 250 250 250 250 250 250 251 251 252 252 252 252 253 253 254 254 254 255 255 256 256 256 255 255 255 255 255 256 256 257 257 256 256 256 256 256 256 256 255 254 254 253 253 253 253 254
213 211 210 211 210 208 205 203 203 203 203 204 204 205 206 207 209 210 210 211 212 214 215 217 219 221 224 227 230 233 235 238 241 244 247 249 251 253 254 255 256 255 255 256 256 256 256 256 256 257 257 257 257 257 257 257 257 257 257 257 258 258 257 257 257 257 257 257 258 258 258 258 257 256 256 256 256 255 255 255 255 254 254 254 254
218 214 211 212 212 210 208 207 206 205 206 206 205 205 205 205 206 207 208 208 208 209 210 212 214 216 219 222 225 228 230 233 235 238 241 244 247 248 251 252 254 256 257 257 258 259 260 260 261 261 262 262 262 262 262 261 260 260 259 259 259 259 259 259 259 260 260 260 260 260 260 260 260 259 259 258 257 256 256 255 255 255 255 254 253
226 221 217 215 214 213 211 210 209 209 210 209 208 206 206 205 204 204 203 204 204 204 205 206 208 210 213 216 219 222 226 229 233 236 240 242 245 246 248 249 250 252 253 253 254 254 255 256 257 258 258 259 259 260 260 261 261 261 261 261 261 261 261 261 261 262 262 263 262 263 263 262 262 262 262 261 260 260 258 257 257 256 255 254 253
232 229 224 221 218 216 214 213 212 212 213 212 210 209 208 207 206 206 205 205 205 205 207 207 209 211 214 217 219 222 226 229 232 235 238 241 243 244 245 247 248 249 249 250 250 250 250 251 251 252 252 252 253 254 255 256 258 259 260 260 261 262 262 262 263 262 263 264 264 265 265 265 265 265 263 263 263 262 260 259 258 257 257 256 255
236 234 230 228 224 220 218 217 216 216 216 214 213 212 212 213 213 213 214 214 216 218 220 220 221 224 225 227 228 230 233 235 238 240 242 243 243 244 244 245 246 247 248 249 249 249 250 250 250 250 251 251 251 251 252 253 254 255 256 257 259 259 260 262 262 263 264 263 264 265 264 265 266 266 267 267 266 265 263 261 259 259 258 258 258
241 239 236 235 231 227 224 222 222 222 221 220 219 219 221 221 221 221 223 224 227 230 231 232 234 236 236 238 239 240 242 245 247 250 251 252 252 250 250 249 248 249 249 251 251 252 252 251 251 251 251 251 250 250 250 251 251 252 253 254 255 256 258 259 260 261 261 262 263 262 261 262 263 265 267 267 267 267 267 266 266 264 262 262 261
245 243 241 240 238 234 230 228 228 228 227 226 226 227 227 228 228 229 230 232 235 237 238 239 242 244 244 245 246 247 249 252 254 256 257 258 259 259 259 258 257 257 256 256 256 256 257 256 255 254 253 252 251 251 250 250 250 250 250 251 252 253 255 255 257 258 258 259 259 259 259 258 259 260 260 260 261 263 265 268 268 268 269 269 268
247 247 245 244 242 239 236 233 232 233 232 231 231 231 231 232 233 234 235 237 240 242 242 244 247 248 247 249 250 252 254 256 258 260 261 262 263 263 264 264 264 264 264 263 263 263 263 262 261 261 260 259 258 256 254 252 251 250 250 250 250 251 252 253 254 254 254 255 254 254 255 255 253 253 252 252 255 257 258 260 262 263 265 268 270
248 248 248 247 245 243 241 238 235 235 236 235 233 233 234 235 236 238 239 241 242 243 245 246 248 249 250 251 253 255 256 258 260 263 265 266 266 266 266 267 267 267 267 267 266 267 266 266 266 266 266 266 265 264 263 260 257 254 252 251 250 249 249 250 250 250 250 251 250 249 251 252 248 249 249 248 252 252 252 255 256 257 260 262 264
250 248 249 248 247 245 243 241 239 238 239 238 236 237 238 240 240 241 242 243 244 245 246 248 249 250 252 253 254 255 256 257 260 262 264 266 266 267 267 267 268 268 268 268 267 267 267 267 268 268 269 269 269 269 270 268 265 261 257 255 251 248 248 247 247 246 247 248 248 247 249 249 246 247 247 248 251 248 250 253 253 257 259 260 261
251 249 249 250 248 247 245 243 242 241 242 242 240 240 242 243 243 244 245 246 247 248 250 252 252 254 255 255 256 256 257 258 259 261 263 265 266 267 267 268 268 269 270 270 269 268 267 267 268 269 269 270 271 271 272 272 270 267 264 261 256 252 249 247 246 245 246 247 247 248 249 247 246 247 247 250 250 248 251 251 252 257 257 259 264
252 250 249 250 250 248 246 244 242 242 243 244 243 243 244 246 247 248 248 249 251 253 255 256 257 258 259 259 260 261 262 262 263 264 265 266 267 268 268 268 269 270 271 272 271 271 269 269 268 269 270 272 272 273 274 274 274 272 268 266 263 259 254 251 250 248 248 249 249 250 250 249 249 248 250 253 251 251 253 252 255 258 256 259 262
252 251 249 249 250 250 248 245 244 243 244 244 245 245 246 248 249 250 251 253 254 256 258 260 261 262 263 264 265 266 266 267 268 269 270 270 270 270 270 270 270 271 272 273 273 273 272 271 271 271 271 273 274 275 276 277 277 276 273 270 267 265 261 256 256 254 253 254 253 253 254 254 253 252 255 258 257 255 254 256 262 261 258 258 260
253 252 250 249 249 249 249 248 246 245 245 245 245 246 247 248 250 251 252 254 255 257 259 261 262 264 265 266 267 267 268 269 270 271 272 273 273 273 273 272 272 272 272 273 274 274 273 273 273 273 273 274 275 276 277 278 279 279 277 275 271 269 266 263 261 260 258 260 258 258 260 259 258 259 261 263 265 263 260 262 265 266 265 262 264
254 253 252 250 249 249 249 249 248 247 247 246 246 246 247 249 250 251 252 254 256 257 259 261 263 265 266 267 267 267 268 268 269 271 272 274 274 274 274 273 273 272 272 273 273 273 272 272 273 273 274 275 276 277 278 279 280 281 280 278 276 273 271 270 268 266 265 265 264 264 266 265 265 266 268 268 270 269 269 268 268 270 271 268 268
254 254 254 252 250 250 250 250 250 250 249 248 248 248 248 249 251 252 253 255 257 258 260 262 265 266 267 267 267 267 267 268 268 270 273 274 275 275 274 274 273 273 272 273 272 272 271 271 272 273 274 275 276 278 279 280 281 281 281 281 280 278 276 276 274 273 272 272 272 271 272 271 271 273 274 275 275 274 274 274 273 274 274 272 270
254 255 256 254 253 252 251 251 251 252 252 250 250 250 250 250 252 253 254 255 257 259 261 263 265 266 267 267 268 268 269 269 269 270 273 276 276 276 275 274 273 272 272 272 272 272 271 271 272 273 274 275 277 278 279 281 281 282 282 282 282 281 280 280 279 279 279 278 278 278 277 276 276 277 278 279 279 279 278 278 277 277 276 276 274
255 256 257 257 255 254 254 253 253 254 255 254 253 253 253 253 254 255 256 256 257 258 261 263 264 266 268 269 269 270 270 270 270 270 272 275 277 277 276 274 273 272 272 271 271 271 271 271 272 273 274 276 277 279 280 281 282 283 283 283 283 283 283 283 283 282 282 282 281 281 281 280 279 280 281 281 282 282 282 281 281 280 280 279 278
254 255 257 258 258 257 257 256 256 256 257 257 257 257 257 257 257 257 258 258 259 260 262 264 265 267 268 269 270 270 270 270 270 270 271 273 276 277 276 275 274 273 272 272 272 272 272 272 272 273 275 276 278 280 281 282 283 284 284 285 285 285 285 285 284 284 284 283 283 283 284 283 283 283 283 284 285 285 285 285 284 284 283 282 282
252 254 256 258 259 260 259 259 258 258 259 259 260 260 260 260 260 260 261 261 262 263 264 265 266 267 268 269 270 270 270 270 269 269 270 272 274 276 276 276 275 274 273 272 272 272 273 273 273 275 276 277 279 280 281 283 284 284 285 285 285 285 285 285 285 285 284 285 285 285 285 285 286 286 287 287 288 289 289 288 288 287 287 286 286
252 253 255 258 260 261 262 261 260 260 260 261 261 261 262 262 262 263 263 264 265 266 266 267 268 269 269 270 270 270 270 270 269 269 270 272 273 275 275 276 275 274 274 273 273 273 273 274 274 276 277 278 279 279 281 282 283 284 284 284 285 284 284 285 285 285 285 285 285 286 286 287 288 289 289 290 291 291 291 291 291 290 290 289 288
254 254 256 258 260 262 263 263 263 262 261 262 262 262 262 263 263 264 264 265 266 267 268 269 270 270 270 271 271 271 271 270 270 271 272 273 275 276 277 277 276 275 274 273 273 273 273 274 274 275 276 278 278 279 280 281 282 283 283 283 284 284 284 284 284 285 285 285 286 286 287 288 289 290 291 291 292 292 292 293 293 292 292 291 290
256 257 258 259 260 262 263 263 264 264 263 263 263 263 263 263 263 264 265 266 267 268 269 270 272 272 271 271 271 272 271 271 271 272 273 275 278 279 280 280 279 277 275 274 273 274 274 274 275 275 277 278 278 278 279 280 281 282 282 283 284 284 284 284 284 285 285 285 286 287 288 289 289 290 291 292 292 293 293 293 293 293 292 292 291
254 256 256 257 258 259 259 260 262 262 263 263 263 264 263 263 263 264 265 266 267 269 270 271 272 273 272 272 272 272 272 272 273 274 276 278 280 282 283 283 283 280 278 276 275 275 275 275 276 276 277 278 278 278 279 280 281 282 282 283 284 285 285 284 285 285 285 286 286 287 288 289 289 290 291 291 292 292 292 292 292 292 292 292 291
254 254 255 256 257 257 257 258 260 261 262 262 263 263 263 263 263 263 264 266 268 269 271 271 272 272 273 272 273 273 274 274 275 277 278 279 281 282 283 284 283 282 280 279 278 277 277 277 277 278 279 279 278 278 279 281 281 282 283 284 285 285 285 285 285 285 285 286 287 287 287 288 289 290 290 290 291 291 292 292 292 292 292 292 291
259 257 256 257 257 258 259 260 262 263 263 263 263 263 263 263 263 263 264 265 267 269 271 271 272 273 273 274 274 275 275 276 277 278 278 279 281 282 282 283 282 281 280 280 279 279 278 278 279 280 280 280 280 280 281 282 283 283 284 284 286 286 286 285 285 285 286 286 286 286 287 288 288 289 289 290 291 291 291 292 292 292 292 292 292
262 261 260 259 260 261 262 263 265 265 265 265 264 264 263 263 263 263 263 265 267 269 271 272 273 274 275 275 276 276 276 276 277 277 278 279 280 281 281 281 281 280 280 280 280 280 279 280 280 281 281 281 281 282 282 283 283 284 284 284 285 286 286 285 284 285 285 285 285 286 287 287 288 288 289 290 291 291 291 291 291 291 291 291 291
265 265 264 263 262 263 263 264 264 265 266 267 267 266 265 264 264 265 265 267 269 271 272 274 275 275 276 276 276 276 276 275 276 276 277 278 279 280 280 280 280 280 281 281 281 281 281 281 281 282 282 282 282 283 283 283 283 284 284 284 284 285 285 285 285 285 285 285 286 286 287 287 288 289 290 290 291 291 291 291 291 290 290 291 291
267 266 267 266 265 264 264 263 264 266 267 269 268 267 266 266 267 268 269 270 272 273 274 275 276 276 276 276 276 276 276 276 276 277 278 279 280 280 280 280 281 282 282 282 282 282 282 282 282 282 282 282 283 283 283 283 283 284 284 284 284 284 285 285 285 286 286 286 286 286 287 288 288 289 289 289 290 290 290 289 289 289 289 290 290
267 267 267 267 267 266 265 265 265 267 268 269 268 268 268 268 270 271 272 273 274 275 276 276 276 276 276 276 277 277 277 278 278 278 279 280 280 280 280 280 281 281 281 282 282 282 282 282 282 282 282 282 283 283 283 283 283 283 283 283 283 284 284 285 285 286 286 286 286 287 287 287 288 288 288 288 288 288 288 288 288 288 289 289 289
266 265 265 265 265 266 266 266 266 266 267 267 267 267 268 269 271 273 274 275 276 277 277 277 277 278 278 277 277 277 278 278 278 278 279 280 280 280 279 279 280 280 280 280 280 281 281 281 281 282 282 282 282 282 282 282 283 283 283 283 283 284 284 284 284 285 285 285 286 287 287 287 287 287 287 287 287 287 287 287 288 288 288 289 289
266 265 265 264 263 263 264 265 266 266 266 267 268 268 268 270 272 274 275 276 277 278 277 278 278 278 278 277 277 276 277 277 278 278 278 279 280 280 279 279 279 279 279 279 280 280 280 281 281 281 281 281 281 282 282 282 282 282 282 282 283 283 283 283 283 284 284 284 284 285 286 287 287 287 287 286 286 287 287 287 287 288 288 289 290
268 267 266 266 266 265 264 265 266 266 268 269 269 269 269 270 271 272 274 275 276 276 276 276 277 277 276 276 276 275 275 276 276 276 277 278 279 279 279 279 278 278 278 279 279 279 279 279 279 280 280 280 280 280 281 281 281 281 281 282 282 282 282 282 282 282 282 282 282 282 283 284 286 286 286 286 286 286 286 286 287 287 287 288 289
269 268 267 267 267 267 267 266 266 267 268 269 269 269 269 269 270 270 271 272 274 275 275 276 276 276 276 276 275 274 274 273 273 274 276 278 279 279 280 280 280 280 280 281 281 280 280 279 279 279 279 279 279 279 279 279 280 280 281 281 281 281 281 281 281 281 281 281 281 281 281 282 283 283 284 284 285 285 285 286 286 286 287 287 288
Height
10812 10812 10812 10813 10813 10813 10814 10814 10816 10817 10820 10822 10825 10828 10830 10833 10835 10836 10838 10840 10842 10843 10845 10847 10848 10849 10850 10851 10853 10854 10855 10857 10859 10860 10862 10864 10865 10866 10867 10868 10869 10871 10872 10872 10873 10874 10875 10875 10875 10876 10876 10877 10878 10879 10880 10881 10882 10883 10885 10886 10887 10888 10889 10890 10891 10892 10892 10893 10893 10894 10895 10897 10898 10899 10900 10901 10902 10903 10904 10905 10906 10907 10907 10908 10909
10811 10811 10811 10812 10812 10813 10813 10814 10815 10816 10818 10820 10823 10825 10828 10831 10833 10835 10837 10838 10840 10842 10843 10845 10846 10847 10848 10849 10850 10851 10852 10853 10855 10857 10858 10860 10861 10862 10864 10865 10866 10868 10869 10869 10870 10871 10872 10873 10873 10874 10874 10875 10876 10877 10878 10879 10880 10881 10882 10884 10885 10886 10887 10887 10888 10888 10888 10889 10889 10890 10892 10894 10895 10896 10896 10898 10899 10900 10901 10902 10903 10904 10905 10906 10907
10811 10811 10811 10811 10811 10812 10813 10814 10814 10815 10816 10818 10820 10822 10825 10828 10830 10832 10835 10837 10838 10840 10842 10843 10845 10846 10847 10848 10849 10850 10850 10851 10852 10854 10856 10857 10857 10858 10859 10861 10863 10864 10865 10866 10867 10868 10869 10870 10871 10871 10872 10872 10873 10874 10875 10876 10877 10878 10879 10880 10881 10882 10883 10884 10884 10884 10885 10885 10886 10886 10888 10890 10891 10892 10893 10895 10896 10896 10897 10899 10901 10901 10902 10903 10904
10811 10810 10810 10810 10811 10811 10812 10813 10814 10815 10816 10817 10818 10820 10822 10825 10827 10829 10831 10833 10835 10837 10839 10840 10842 10843 10844 10846 10847 10848 10849 10850 10851 10852 10854 10855 10855 10855 10855 10856 10858 10860 10861 10863 10864 10865 10866 10867 10868 10868 10869 10870 10870 10871 10872 10873 10874 10875 10876 10877 10878 10878 10879 10880 10880 10880 10881 10881 10882 10883 10884 10886 10887 10889 10890 10891 10892 10893 10894 10896 10897 10899 10899 10900 10901
10811 10810 10810 10810 10810 10811 10811 10812 10813 10814 10815 10816 10817 10818 10820 10822 10824 10826 10828 10830 10831 10833 10834 10836 10837 10838 10839 10841 10843 10844 10845 10846 10847 10848 10850 10851 10852 10853 10852 10852 10854 10856 10856 10858 10859 10861 10862 10863 10864 10865 10865 10866 10867 10868 10869 10870 10871 10872 10873 10874 10875 10875 10875 10875 10876 10877 10877 10877 10878 10879 10880 10881 10883 10885 10886 10887 10889 10890 10891 10892 10893 10895 10896 10897 10898
10810 10810 10810 10810 10810 10811 10811 10812 10812 10813 10814 10815 10816 10817 10818 10820 10822 10824 10825 10827 10828 10829 10830 10831 10832 10834 10835 10836 10838 10839 10840 10842 10843 10844 10845 10846 10847 10849 10850 10849 10851 10852 10852 10852 10853 10855 10857 10858 10859 10860 10861 10862 10863 10864 10865 10866 10867 10868 10869 10871 10871 10871 10871 10871 10871 10872 10873 10874 10874 10875 10876 10877 10879 10881 10883 10884 10885 10886 10887 10888 10889 10891 10893 10894 10895
10810 10810 10810 10810 10810 10810 10811 10811 10812 10813 10814 10814 10815 10816 10817 10818 10820 10821 10823 10824 10825 10826 10827 10828 10829 10830 10831 10832 10834 10835 10836 10838 10839 10840 10841 10842 10843 10844 10846 10847 10847 10849 10850 10849 10848 10849 10851 10852 10852 10852 10854 10856 10857 10859 10859 10860 10862 10863 10865 10866 10867 10868 10867 10867 10867 10868 10869 10870 10871 10871 10872 10874 10875 10877 10879 10880 10881 10882 10884 10885 10886 10887 10889 10891 10891
10810 10810 10810 10810 10810 10810 10810 10811 10811 10812 10813 10814 10814 10815 10816 10817 10818 10819 10820 10821 10822 10823 10824 10824 10825 10826 10828 10829 10830 10832 10833 10835 10836 10837 10838 10839 10840 10841 10841 10843 10844 10845 10847 10847 10847 10846 10847 10848 10848 10847 10848 10850 10851 10853 10853 10855 10855 10857 10859 10860 10863 10864 10864 10863 10863 10863 10864 10865 10866 10867 10868 10869 10871 10872 10874 10876 10877 10878 10879 10881 10882 10883 10885 10886 10888
10810 10810 10810 10810 10810 10810 10810 10810 10810 10811 10812 10812 10813 10814 10814 10815 10816 10817 10818 10819 10820 10820 10821 10822 10823 10824 10825 10826 10827 10828 10830 10831 10833 10834 10835 10836 10836 10837 10838 10839 10840 10841 10843 10844 10845 10845 10845 10845 10846 10845 10844 10845 10846 10847 10848 10850 10850 10851 10853 10853 10856 10859 10860 10859 10859 10860 10860 10861 10861 10862 10864 10865 10866 10867 10869 10870 10872 10873 10875 10876 10878 10879 10880 10882 10883
10810 10810 10810 10810 10810 10810 10810 10810 10810 10810 10810 10811 10811 10812 10812 10813 10814 10815 10815 10816 10817 10818 10819 10820 10820 10821 10822 10823 10824 10825 10827 10828 10829 10830 10831 10832 10833 10834 10834 10835 10837 10838 10839 10840 10841 10842 10842 10842 10843 10843 10842 10842 10843 10844 10845 10847 10848 10848 10850 10849 10850 10854 10855 10855 10856 10856 10856 10857 10857 10858 10859 10861 10862 10863 10864 10866 10867 10869 10870 10871 10873 10875 10876 10877 10879
10810 10810 10810 10809 10809 10809 10809 10809 10809 10809 10809 10809 10810 10810 10811 10811 10812 10813 10813 10814 10815 10816 10816 10817 10818 10819 10820 10820 10821 10822 10823 10825 10826 10827 10828 10829 10830 10830 10831 10832 10833 10834 10835 10836 10837 10838 10839 10839 10839 10840 10840 10840 10840 10841 10841 10843 10844 10845 10847 10847 10847 10848 10850 10851 10852 10852 10852 10853 10853 10854 10855 10856 10857 10858 10860 10861 10863 10864 10865 10866 10868 10870 10871 10873 10874
10810 10810 10809 10809 10809 10809 10809 10809 10809 10809 10809 10809 10809 10810 10810 10810 10811 10811 10812 10812 10813 10814 10814 10815 10815 10816 10817 10818 10818 10819 10820 10821 10822 10823 10824 10825 10825 10826 10827 10828 10829 10830 10831 10832 10833 10833 10834 10835 10835 10836 10837 10837 10837 10838 10838 10839 10840 10841 10842 10843 10844 10844 10845 10846 10846 10847 10848 10848 10849 10849 10850 10851 10852 10853 10855 10856 10858 10859 10860 10861 10862 10864 10866 10868 10869
10810 10810 10809 10809 10809 10809 10809 10809 10809 10809 10809 10809 10809 10809 10809 10809 10810 10810 10810 10811 10811 10812 10812 10813 10813 10814 10815 10815 10816 10817 10817 10818 10819 10819 10820 10821 10822 10822 10823 10824 10824 10825 10826 10827 10828 10829 10830 10831 10831 10832 10833 10833 10834 10834 10834 10835 10835 10836 10837 10837 10838 10839 10840 10841 10841 10842 10842 10843 10843 10844 10845 10846 10846 10847 10849 10850 10852 10854 10855 10856 10857 10858 10861 10862 10864
10810 10810 10809 10809 10809 10809 10808 10808 10808 10808 10808 10808 10808 10808 10809 10809 10809 10809 10809 10810 10810 10810 10811 10811 10812 10812 10813 10814 10814 10815 10815 10816 10816 10817 10817 10818 10818 10819 10819 10820 10821 10821 10822 10823 10824 10825 10825 10826 10827 10828 10828 10829 10829 10830 10830 10830 10831 10831 10831 10832 10833 10834 10835 10835 10836 10836 10836 10837 10837 10838 10839 10840 10841 10842 10843 10845 10846 10848 10849 10850 10851 10853 10855 10856 10858
10809 10809 10809 10809 10808 10808 10808 10808 10808 10808 10808 10807 10807 10808 10808 10808 10808 10808 10808 10809 10809 10809 10809 10809 10810 10810 10811 10812 10813 10813 10814 10814 10814 10815 10815 10815 10816 10816 10817 10817 10818 10818 10819 10820 10820 10821 10822 10822 10823 10824 10824 10824 10824 10825 10825 10825 10826 10826 10826 10827 10827 10828 10829 10829 10830 10830 10831 10831 10831 10832 10833 10834 10835 10836 10838 10840 10841 10842 10843 10844 10845 10847 10848 10850 10851
10809 10809 10808 10808 10808 10808 10808 10808 10808 10808 10807 10807 10807 10807 10807 10807 10807 10807 10807 10807 10808 10808 10808 10808 10808 10809 10809 10810 10811 10811 10812 10812 10813 10813 10814 10814 10814 10815 10815 10815 10816 10816 10816 10817 10817 10818 10818 10819 10819 10820 10820 10820 10820 10820 10820 10821 10821 10821 10822 10822 10822 10823 10823 10824 10824 10824 10825 10825 10826 10826 10827 10828 10829 10831 10832 10834 10835 10836 10837 10838 10839 10840 10841 10843 10844
10808 10808 10808 10808 10808 10808 10808 10807 10807 10807 10807 10807 10806 10806 10806 10806 10806 10806 10807 10807 10807 10807 10807 10807 10808 10808 10808 10809 10809 10810 10810 10811 10811 10812 10812 10812 10813 10813 10813 10814 10814 10814 10814 10815 10815 10815 10816 10816 10816 10816 10816 10816 10816 10816 10816 10816 10816 10817 10817 10817 10817 10818 10818 10818 10819 10819 10819 10820 10820 10821 10821 10822 10824 10825 10827 10828 10829 10831 10831 10832 10833 10834 10836 10837 10838
10807 10807 10807 10807 10807 10807 10807 10807 10806 10806 10806 10806 10805 10805 10805 10805 10806 10806 10806 10806 10806 10806 10807 10807 10807 10807 10807 10808 10808 10809 10809 10809 10810 10810 10810 10811 10811 10811 10811 10812 10812 10812 10812 10812 10812 10813 10813 10813 10813 10812 10812 10812 10812 10812 10812 10812 10812 10812 10812 10812 10812 10812 10813 10813 10813 10814 10814 10815 10815 10815 10816 10817 10818 10819 10821 10822 10823 10825 10826 10827 10828 10830 10831 10832 10833
10806 10806 10806 10806 10806 10806 10806 10806 10806 10805 10805 10805 10804 10804 10804 10804 10804 10805 10805 10805 10805 10806 10806 10806 10806 10807 10807 10807 10807 10808 10808 10808 10809 10809 10809 10810 10810 10810 10810 10810 10810 10810 10810 10810 10810 10810 10810 10810 10810 10810 10809 10809 10809 10808 10808 10808 10808 10808 10808 10808 10808 10808 10808 10808 10808 10809 10809 10810 10810 10810 10811 10812 10813 10814 10815 10816 10817 10819 10821 10822 10823 10824 10825 10826 10827
10804 10804 10804 10804 10804 10804 10804 10804 10804 10804 10804 10803 10803 10803 10803 10803 10803 10803 10804 10804 10804 10805 10805 10806 10806 10806 10806 10807 10807 10807 10807 10808 10808 10808 10809 10809 10809 10809 10809 10809 10808 10808 10808 10808 10808 10808 10808 10808 10808 10807 10807 10806 10806 10805 10805 10805 10804 10804 10804 10804 10804 10803 10804 10804 10804 10804 10804 10805 10805 10805 10806 10807 10808 10809 10809 10810 10812 10813 10815 10816 10816 10816 10816 10817 10819
10802 10802 10802 10802 10802 10802 10802 10803 10802 10802 10802 10802 10801 10801 10801 10801 10802 10802 10802 10803 10803 10803 10804 10804 10804 10805 10805 10805 10805 10805 10806 10806 10807 10807 10807 10808 10808 10808 10808 10807 10807 10807 10807 10806 10806 10806 10806 10806 10806 10805 10805 10804 10803 10803 10802 10802 10801 10801 10800 10800 10800 10800 10799 10800 10800 10800 10800 10800 10801 10801 10801 10802 10803 10803 10804 10805 10806 10807 10808 10808 10808 10809 10809 10810 10810
10800 10800 10800 10800 10800 10800 10800 10800 10800 10800 10800 10800 10799 10800 10800 10799 10800 10800 10800 10801 10801 10801 10801 10802 10802 10802 10802 10802 10803 10803 10803 10804 10804 10804 10805 10805 10805 10805 10806 10806 10805 10805 10805 10805 10805 10804 10804 10804 10803 10803 10802 10802 10801 10800 10800 10799 10798 10798 10797 10797 10796 10796 10796 10796 10796 10796 10796 10796 10797 10797 10797 10798 10798 10798 10799 10800 10800 10801 10801 10801 10802 10803 10803 10804 10804
10797 10797 10797 10797 10797 10798 10798 10798 10798 10797 10797 10797 10798 10797 10797 10797 10797 10797 10798 10798 10798 10798 10799 10799 10799 10799 10799 10799 10799 10800 10800 10800 10801 10801 10801 10801 10802 10802 10802 10802 10802 10802 10802 10802 10802 10802 10802 10801 10801 10800 10800 10799 10799 10798 10797 10796 10796 10795 10794 10793 10793 10792 10792 10792 10792 10792 10792 10792 10793 10793 10793 10794 10795 10795 10795 10795 10795 10795 10795 10796 10797 10798 10798 10799 10799
10794 10795 10795 10795 10795 10795 10795 10795 10795 10795 10795 10795 10795 10795 10795 10795 10795 10795 10795 10795 10795 10795 10795 10796 10796 10796 10796 10796 10796 10796 10796 10797 10797 10797 10797 10798 10798 10798 10798 10798 10798 10798 10799 10799 10799 10798 10798 10798 10797 10797 10796 10796 10795 10795 10794 10794 10793 10792 10791 10790 10790 10789 10789 10789 10789 10789 10789 10789 10789 10789 10789 10790 10791 10792 10792 10792 10791 10791 10791 10792 10792 10793 10793 10794 10794
10792 10792 10792 10792 10792 10792 10792 10792 10792 10792 10791 10792 10792 10792 10792 10792 10792 10792 10792 10792 10792 10792 10792 10792 10792 10792 10792 10793 10793 10793 10793 10793 10793 10793 10793 10793 10793 10793 10794 10794 10794 10794 10794 10794 10794 10794 10794 10793 10793 10792 10792 10792 10791 10791 10790 10790 10789 10789 10788 10787 10787 10786 10786 10786 10786 10786 10785 10786 10786 10786 10786 10786 10787 10788 10787 10787 10787 10787 10787 10788 10788 10788 10789 10789 10789
10789 10789 10789 10788 10788 10789 10788 10788 10789 10789 10788 10788 10789 10789 10789 10789 10789 10789 10789 10789 10789 10789 10789 10789 10789 10789 10789 10790 10790 10790 10790 10790 10790 10790 10790 10789 10789 10789 10789 10789 10789 10789 10789 10790 10789 10789 10789 10788 10788 10787 10787 10787 10786 10786 10786 10785 10785 10784 10784 10783 10783 10782 10782 10782 10782 10782 10782 10782 10782 10781 10781 10781 10782 10782 10782 10782 10782 10782 10783 10783 10783 10783 10784 10784 10785
10785 10786 10785 10785 10785 10785 10785 10785 10785 10785 10785 10785 10785 10785 10785 10785 10785 10785 10785 10786 10785 10785 10785 10785 10785 10785 10786 10786 10786 10786 10786 10787 10786 10786 10786 10785 10785 10785 10785 10785 10784 10785 10785 10785 10785 10784 10784 10784 10783 10783 10782 10782 10781 10781 10781 10780 10780 10779 10778 10778 10777 10777 10777 10777 10777 10777 10777 10777 10777 10776 10776 10776 10776 10777 10776 10776 10777 10777 10777 10777 10777 10778 10778 10778 10779
10782 10783 10782 10781 10782 10782 10781 10782 10782 10782 10781 10781 10782 10782 10782 10781 10781 10782 10782 10782 10782 10782 10782 10781 10781 10781 10781 10782 10782 10782 10782 10782 10782 10781 10781 10781 10781 10781 10780 10780 10780 10780 10780 10780 10780 10779 10779 10779 10778 10778 10777 10777 10776 10776 10775 10775 10774 10774 10773 10772 10772 10771 10771 10771 10771 10771 10771 10771 10771 10770 10770 10770 10770 10770 10770 10771 10771 10771 10771 10771 10771 10771 10771 10771 10772
10779 10780 10779 10778 10779 10778 10778 10778 10778 10778 10778 10777 10778 10778 10778 10777 10777 10778 10778 10778 10778 10778 10778 10777 10777 10777 10777 10777 10777 10777 10777 10777 10777 10777 10777 10776 10776 10776 10776 10775 10775 10775 10775 10775 10774 10774 10774 10773 10773 10772 10772 10771 10771 10770 10770 10769 10768 10768 10768 10767 10766 10765 10765 10765 10765 10765 10764 10764 10764 10764 10763 10763 10764 10764 10764 10765 10765 10765 10764 10764 10764 10763 10763 10763 10763
10776 10776 10776 10776 10775 10775 10775 10775 10775 10774 10774 10774 10774 10774 10774 10774 10774 10774 10774 10774 10774 10774 10774 10773 10773 10773 10772 10772 10772 10772 10772 10772 10772 10772 10772 10772 10771 10772 10771 10771 10770 10770 10770 10770 10769 10769 10768 10767 10767 10766 10766 10765 10765 10764 10764 10763 10763 10762 10762 10761 10760 10759 10759 10759 10759 10758 10758 10757 10757 10757 10757 10757 10758 10758 10757 10758 10758 10758 10757 10756 10755 10755 10754 10754 10754
10773 10773 10772 10773 10772 10771 10771 10771 10771 10770 10770 10770 10770 10770 10770 10770 10770 10770 10770 10769 10770 10770 10769 10769 10768 10768 10768 10768 10768 10767 10767 10767 10767 10767 10766 10766 10766 10767 10767 10766 10766 10765 10765 10764 10764 10763 10762 10762 10761 10761 10760 10760 10759 10758 10758 10758 10757 10756 10755 10754 10754 10753 10752 10752 10752 10751 10750 10750 10750 10750 10750 10750 10751 10750 10750 10750 10750 10749 10749 10748 10746 10745 10745 10744 10744
10770 10769 10769 10769 10769 10769 10769 10768 10767 10766 10766 10766 10766 10766 10766 10766 10765 10765 10765 10765 10765 10765 10765 10765 10764 10763 10763 10763 10763 10763 10763 10762 10762 10762 10762 10761 10761 10762 10761 10761 10760 10760 10759 10759 10758 10757 10756 10756 10755 10755 10754 10754 10753 10752 10752 10751 10751 10749 10748 10748 10747 10746 10746 10745 10744 10743 10743 10743 10742 10743 10743 10743 10743 10742 10742 10741 10741 10740 10739 10739 10737 10736 10735 10734 10734
10766 10766 10765 10765 10766 10766 10765 10764 10763 10762 10761 10761 10761 10761 10761 10761 10761 10760 10760 10760 10760 10760 10760 10760 10760 10759 10759 10759 10759 10758 10758 10757 10757 10757 10757 10756 10756 10756 10756 10755 10755 10754 10754 10753 10752 10751 10750 10750 10749 10749 10749 10748 10747 10746 10745 10745 10744 10743 10742 10741 10740 10739 10739 10738 10737 10736 10735 10735 10735 10734 10734 10734 10734 10734 10733 10732 10731 10731 10730 10729 10728 10727 10725 10724 10724
10762 10762 10761 10761 10762 10762 10761 10761 10760 10758 10757 10757 10756 10756 10756 10756 10756 10756 10755 10755 10755 10755 10755 10756 10755 10754 10754 10754 10754 10754 10753 10752 10752 10752 10751 10751 10751 10750 10750 10749 10749 10748 10748 10747 10746 10745 10745 10744 10743 10743 10743 10742 10741 10740 10739 10738 10737 10736 10735 10734 10733 10732 10732 10731 10730 10728 10728 10727 10726 10726 10726 10725 10725 10725 10724 10723 10722 10721 10720 10719 10718 10717 10716 10715 10714
10758 10757 10756 10756 10757 10757 10757 10756 10755 10754 10752 10752 10752 10751 10751 10751 10751 10751 10750 10750 10750 10750 10750 10751 10750 10749 10749 10749 10749 10749 10747 10747 10746 10746 10745 10745 10745 10745 10744 10743 10742 10742 10741 10740 10740 10739 10738 10738 10737 10737 10736 10736 10735 10734 10732 10732 10731 10730 10728 10727 10726 10725 10725 10724 10722 10721 10720 10719 10718 10717 10717 10716 10716 10715 10715 10714 10713 10712 10711 10710 10708 10707 10706 10705 10704
10754 10753 10751 10751 10751 10752 10752 10751 10751 10750 10748 10747 10747 10746 10746 10746 10746 10745 10745 10744 10744 10744 10745 10745 10745 10744 10744 10744 10744 10743 10742 10741 10741 10740 10739 10739 10739 10738 10738 10737 10736 10735 10734 10734 10733 10732 10732 10731 10731 10731 10730 10730 10729 10727 10726 10725 10724 10723 10722 10721 10719 10718 10717 10716 10715 10713 10712 10710 10710 10709 10708 10707 10707 10707 10706 10705 10704 10703 10701 10700 10698 10697 10695 10694 10693
10748 10747 10747 10746 10746 10746 10746 10746 10745 10745 10743 10742 10741 10741 10741 10740 10740 10740 10739 10738 10738 10738 10739 10739 10739 10739 10738 10738 10738 10737 10736 10735 10735 10734 10733 10733 10733 10732 10731 10730 10729 10728 10728 10727 10726 10726 10725 10724 10724 10724 10724 10723 10722 10721 10719 10718 10717 10715 10714 10713 10712 10711 10710 10708 10707 10705 10703 10702 10701 10700 10699 10699 10698 10698 10697 10695 10694 10693 10691 10689 10688 10686 10684 10683 10681
10743 10742 10742 10741 10741 10740 10740 10739 10739 10739 10738 10736 10736 10736 10735 10735 10734 10734 10733 10732 10732 10732 10733 10733 10733 10733 10733 10732 10731 10731 10730 10729 10728 10727 10727 10726 10726 10726 10725 10724 10723 10722 10721 10721 10720 10719 10718 10718 10717 10716 10716 10716 10715 10714 10712 10711 10709 10707 10706 10706 10704 10703 10702 10700 10698 10696 10695 10694 10693 10691 10690 10689 10689 10688 10687 10685 10684 10682 10680 10679 10677 10675 10673 10671 10670
10737 10737 10736 10736 10736 10735 10734 10733 10732 10732 10732 10730 10729 10729 10729 10728 10728 10728 10727 10726 10725 10725 10726 10726 10727 10727 10727 10726 10725 10724 10723 10722 10721 10720 10719 10719 10719 10719 10718 10718 10717 10716 10715 10714 10713 10712 10711 10711 10710 10709 10708 10708 10707 10706 10705 10703 10702 10700 10698 10698 10697 10695 10694 10692 10690 10688 10687 10686 10684 10682 10681 10680 10680 10679 10678 10676 10674 10672 10670 10668 10667 10664 10662 10660 10658
10731 10731 10730 10730 10730 10729 10728 10726 10725 10726 10725 10724 10723 10723 10722 10722 10722 10721 10720 10720 10719 10718 10719 10719 10720 10720 10720 10719 10718 10717 10716 10715 10714 10713 10712 10712 10712 10711 10711 10710 10710 10709 10708 10707 10706 10705 10704 10703 10702 10702 10701 10701 10699 10698 10697 10695 10694 10692 10690 10689 10689 10688 10686 10684 10682 10681 10680 10677 10675 10674 10672 10671 10671 10669 10668 10666 10664 10662 10660 10658 10656 10654 10651 10648 10646
10725 10725 10724 10723 10723 10723 10721 10719 10719 10719 10718 10717 10716 10716 10716 10716 10715 10715 10714 10714 10713 10712 10712 10713 10713 10713 10713 10712 10711 10710 10709 10708 10707 10706 10705 10705 10704 10703 10703 10702 10702 10701 10700 10700 10699 10698 10697 10695 10695 10694 10693 10693 10692 10690 10688 10687 10685 10683 10681 10681 10681 10680 10679 10676 10674 10673 10672 10669 10667 10665 10664 10663 10662 10660 10658 10656 10654 10652 10649 10647 10645 10642 10640 10637 10634
10719 10718 10716 10716 10716 10715 10714 10713 10712 10712 10711 10711 10710 10710 10709 10710 10709 10709 10708 10708 10707 10706 10706 10706 10706 10706 10706 10705 10704 10703 10702 10701 10700 10699 10698 10698 10697 10696 10695 10694 10694 10693 10692 10692 10691 10690 10689 10688 10687 10686 10685 10684 10684 10683 10681 10679 10677 10675 10673 10671 10672 10673 10672 10669 10666 10665 10664 10661 10659 10657 10655 10654 10652 10651 10649 10646 10644 10642 10639 10636 10633 10631 10628 10625 10622
10712 10711 10710 10710 10709 10708 10707 10707 10706 10705 10705 10704 10704 10704 10703 10703 10703 10702 10702 10702 10701 10700 10700 10700 10699 10699 10699 10698 10697 10696 10695 10694 10693 10692 10691 10690 10689 10688 10688 10687 10686 10685 10684 10683 10683 10682 10681 10679 10678 10678 10677 10676 10676 10676 10675 10673 10671 10669 10666 10663 10662 10664 10665 10662 10658 10656 10655 10652 10650 10648 10646 10645 10643 10640 10638 10636 10634 10631 10628 10625 10622 10619 10616 10613 10610
10706 10705 10704 10704 10703 10702 10702 10701 10701 10699 10698 10698 10698 10698 10697 10697 10697 10697 10697 10696 10695 10695 10694 10693 10693 10693 10692 10692 10691 10689 10688 10687 10686 10685 10684 10683 10682 10681 10680 10679 10679 10678 10677 10676 10675 10674 10673 10671 10670 10669 10668 10667 10667 10667 10668 10667 10664 10662 10660 10658 10654 10653 10655 10655 10651 10649 10647 10643 10640 10639 10637 10635 10633 10630 10627 10625 10622 10619 10616 10613 10610 10607 10603 10600 10598
10700 10700 10699 10698 10698 10697 10697 10696 10696 10694 10693 10693 10693 10693 10692 10692 10691 10691 10690 10690 10689 10688 10688 10687 10687 10686 10686 10685 10684 10683 10681 10680 10679 10678 10677 10676 10675 10674 10673 10672 10671 10670 10669 10668 10667 10666 10665 10663 10662 10660 10659 10658 10658 10658 10658 10658 10657 10655 10653 10651 10648 10645 10644 10644 10643 10641 10638 10635 10631 10629 10628 10625 10622 10618 10615 10613 10609 10606 10603 10600 10597 10594 10591 10588 10586
10695 10695 10694 10693 10692 10692 10692 10691 10690 10689 10688 10688 10688 10688 10687 10686 10686 10685 10684 10683 10682 10682 10681 10681 10680 10679 10679 10678 10677 10676 10674 10673 10672 10671 10670 10669 10668 10667 10666 10665 10664 10662 10661 10660 10659 10658 10657 10655 10653 10651 10650 10648 10648 10648 10648 10648 10648 10647 10645 10643 10641 10638 10635 10633 10633 10630 10627 10625 10622 10620 10618 10616 10613 10609 10605 10602 10598 10595 10591 10588 10584 10581 10578 10576 10574
10689 10689 10688 10688 10687 10686 10685 10685 10684 10684 10683 10683 10682 10682 10682 10681 10681 10680 10678 10677 10676 10675 10674 10673 10672 10671 10671 10671 10670 10669 10667 10666 10665 10664 10663 10662 10661 10659 10658 10657 10656 10655 10653 10652 10651 10650 10649 10647 10645 10643 10641 10639 10638 10637 10637 10638 10638 10637 10635 10633 10631 10630 10627 10624 10623 10621 10616 10612 10610 10610 10609 10607 10603 10599 10594 10591 10588 10584 10579 10575 10572 10568 10565 10563 10561
10684 10683 10683 10682 10682 10680 10680 10679 10678 10678 10677 10677 10676 10676 10676 10675 10674 10673 10671 10670 10668 10667 10667 10665 10664 10663 10663 10662 10662 10661 10659 10658 10657 10656 10655 10654 10653 10652 10651 10649 10648 10647 10645 10644 10643 10642 10640 10638 10636 10634 10632 10630 10629 10627 10627 10626 10627 10626 10625 10623 10621 10619 10617 10615 10613 10611 10609 10603 10597 10595 10596 10596 10593 10587 10583 10579 10576 10573 10568 10562 10559 10555 10551 10548 10547
10677 10676 10676 10675 10675 10674 10674 10673 10671 10672 10671 10670 10670 10669 10669 10668 10666 10665 10663 10662 10661 10659 10658 10657 10656 10655 10654 10654 10653 10652 10651 10650 10649 10648 10647 10646 10644 10643 10641 10640 10639 10638 10636 10635 10634 10633 10631 10629 10626 10624 10622 10621 10619 10617 10616 10615 10615 10614 10613 10612 10610 10608 10607 10605 10603 10601 10599 10597 10591 10584 10581 10581 10579 10573 10569 10568 10565 10560 10555 10550 10546 10541 10538 10535 10531
10670 10669 10668 10668 10667 10667 10666 10666 10665 10665 10664 10663 10662 10661 10661 10659 10658 10657 10655 10654 10653 10651 10650 10649 10648 10647 10645 10645 10644 10644 10643 10642 10641 10639 10638 10637 10635 10633 10631 10630 10629 10628 10626 10625 10624 10622 10621 10619 10617 10614 10612 10610 10609 10606 10605 10604 10603 10602 10601 10599 10598 10597 10595 10593 10592 10591 10589 10588 10586 10580 10573 10571 10569 10560 10552 10551 10552 10548 10542 10537 10534 10530 10526 10522 10520
10662 10661 10660 10660 10659 10659 10658 10658 10657 10657 10656 10654 10654 10653 10652 10651 10649 10648 10647 10646 10645 10643 10641 10640 10639 10638 10636 10635 10634 10634 10634 10634 10633 10631 10630 10628 10626 10623 10621 10620 10619 10617 10615 10614 10612 10611 10609 10608 10606 10604 10602 10600 10598 10595 10593 10592 10590 10589 10588 10586 10584 10583 10583 10581 10579 10578 10577 10576 10576 10573 10568 10565 10564 10556 10544 10538 10536 10532 10527 10522 10520 10517 10512 10508 10507